Content
SEND FEEDBACK

Daily
Averages
Monthly
Summary
Brazil

SÃO PAULO, SÃO PAULO


Home > South America > Brazil > São Paulo
Elevation: 2634 feet     Latitude: 23 37S     Longitude: 046 39W

WEATHER
 
SELECT A DAY
Number of Records: 162,252;   Date Range: 6/30/96 - 11/25/14
 
SHARE

PRINT THIS DATA

[ ← Previous Day ]
WEATHER ALMANAC - JUNE 26, 2013
[ Next Day → ]
[ °C ]   °F
We're sorry. There is no daily almanac available for São Paulo, São Paulo on June 26, 2013.
WEATHER BY HOUR - JUNE 26, 2013
[ °C ]   °F
Local TimeTemperatureDewpointHumidityBarometerVisibilityWind DirectionWind SpeedGust SpeedPrecipitationEventsConditions
12:14 AM62.6 °F59.0 °F88 %30.15 in1.6 miWSW (240°)5.8 mphRainRain
1:00 AM62.6 °F59.0 °F88 %1.6 miSW (230°)4.6 mphRainHeavy Rain
1:41 AM62.6 °F59.0 °F88 %1.6 miVariable2.3 mphRain-ThunderstormThunderstorms and Rain
2:00 AM62.6 °F59.0 °F88 %30.15 in2.5 miSW (220°)3.5 mphRainRain
2:24 AM62.6 °F33.8 °F34 %30.15 in1.6 miSW (230°)3.5 mphRainHeavy Rain
3:00 AM62.0 °F59.0 °F85 %6.0 miSSW (210°)4.6 mphRainLight Rain
3:00 AM62.6 °F59.0 °F88 %30.12 in5.6 miSSW (210°)4.6 mphRainLight Rain
4:00 AM60.8 °F59.0 °F94 %30.09 in5.6 miVariable2.3 mphRainRain
5:00 AM60.8 °F59.0 °F94 %30.09 in5.6 miCalmRainLight Rain
6:00 AM60.8 °F59.0 °F94 %30.09 in3.1 miCalmRainLight Rain
6:10 AM62.6 °F59.0 °F88 %30.12 in3.1 miCalmRainLight Rain
7:00 AM62.6 °F33.8 °F34 %30.12 in2.5 miWSW (250°)4.6 mphRainLight Rain
8:00 AM62.6 °F59.0 °F88 %30.15 in1.9 miVariable2.3 mphRainLight Rain
8:32 AM62.6 °F59.0 °F88 %30.15 in6.2 miWSW (250°)3.5 mphRainRain
9:00 AM62.0 °F59.0 °F86 %2.0 miWest (270°)3.5 mphRainHeavy Rain
9:00 AM62.6 °F59.0 °F88 %30.18 in2.2 miWest (270°)3.5 mphRainHeavy Rain
9:38 AM62.6 °F59.0 °F88 %4.3 miWNW (300°)5.8 mph17.3 mphRainLight Rain
10:00 AM62.6 °F33.8 °F34 %30.18 in6.2 miNW (310°)5.8 mphRainLight Rain
11:00 AM64.4 °F59.0 °F83 %30.15 in6.2 miNW (320°)5.8 mphOvercast
12:00 PM64.4 °F59.0 °F83 %30.15 in6.2 miNorth (360°)6.9 mphRainLight Rain
1:00 PM64.4 °F59.0 °F83 %30.12 in6.2 miNW (320°)5.8 mphRainLight Rain
2:00 PM66.2 °F59.0 °F78 %30.09 in6.2 miNorth (360°)8.1 mphOvercast
3:00 PM66.0 °F60.0 °F76 %6.0 miNorth8.1 mphMist
3:00 PM66.2 °F60.8 °F83 %30.06 in6.2 miNorth (360°)8.1 mphOvercast
4:00 PM66.2 °F59.0 °F78 %30.09 in6.2 miNW (320°)10.4 mphMostly Cloudy
5:00 PM66.2 °F59.0 °F78 %30.09 in6.2 miNW (310°)10.4 mphOvercast
6:00 PM66.2 °F59.0 °F78 %6.2 miNW (310°)6.9 mphOvercast
7:00 PM66.2 °F59.0 °F78 %30.12 in6.2 miNNW (330°)8.1 mphOvercast
8:00 PM64.4 °F59.0 °F83 %30.12 in6.2 miNW (320°)8.1 mphOvercast
9:00 PM64.0 °F60.0 °F81 %12.0 miNW (310°)5.8 mphOvercast
9:00 PM64.4 °F59.0 °F83 %30.15 in6.2 miNW (310°)5.8 mphOvercast
10:00 PM64.4 °F59.0 °F83 %30.18 in5.6 miNNW (330°)9.2 mphRainLight Rain
11:00 PM64.4 °F59.0 °F83 %30.18 inNorth (10°)6.9 mphClear
Hourly data recorded from SBSP, located miles away from São Paulo, São Paulo







STORIES FROM OUR PARTNERS